Find Starlink 5545

NORAD ID: 56476 Int'l Des: 2023-064 Owner: SPXS Country: US Constellation: starlink operational
LEOCIRCULAR

Live-Position

3D-Globus wird geladen...

Über Starlink 5545

Beschreibung wird geladen...

Nächste Überflüge

Passes for default location (London). Set your location on the main map for personalized predictions.

Höhenverlauf

Loading altitude history...

Zweizeiliger Elementsatz

1 56476U 23064AE 26120.93709916 .00001456 00000-0 12997-3 0 9995
2 56476 70.0045 352.7977 0001555 231.7480 128.3540 14.98278181163560
Epoch: 30. Apr. 2026 • Age: 8 hours

Aktueller Status

Höhe 596.8 km
Geschwindigkeit 7.56 km/s
Subsatellitenpunkt -69.38°S, 33.15°W
Startdatum 10. Mai 2023
Alter 2.9 years
Typ internet

Technische Details

Klassifizierung Payload
Masse 305.00 kg
Trockenmasse 290.00 kg
Gesamtmasse 305.00 kg
Länge 0.20 m
Durchmesser 2.80 m
Spannweite 9.00 m
Form Box + pan
Hersteller SPXS
Bus-Typ Starlink
Phasenstatus In Orbit
Besitzer/Staat SPXS/US

Most Searched